sat.trackr.live / text

‹ back to catalog

STARLINK-30213

NORAD 57504 · 2023-113K

PAYLOAD ACTIVE UNKNOWN

§ Identity

Operator
Country
US
Launch date
2023-08-07
Launch site
AFETR
Launch vehicle
Mass (kg)
RCS (m²)

Purposes: comms

External: N2YO · Heavens-Above · Gunter

§ Orbital elements

Epoch: 2026-09-20T13:27:07.246656Z

Period
94.27 min
Inclination
43.0035°
Eccentricity
0.0001003
Mean motion
15.27579022 rev/d
Perigee alt
482.4 km
Apogee alt
483.7 km
Semi-major
6,861.2 km
B*
-1.9292e-5
RAAN
355.9157°
Arg perigee
274.2212°
Mean anomaly
85.8525°
Rev number
17,347

§ Raw data

STARLINK-302131 57504U 23113K   26263.56050054 -.00000793  00000+0 -19292-4 0  99922 57504  43.0035 355.9157 0001003 274.2212  85.8525 15.27579022173472

JSON: /api/v1/satellites/57504 · /tle

For live sub-satellite position, see the globe view (requires WebGL).

§ Visibility from observer

Set your observer location to see the next 7 days of passes ≥ 10°. The values pass through the URL so the page stays shareable.

No JS? Fill the form by hand. The geolocation button needs JavaScript.